User: anonymous   Login
Location: ????? ????
(37.9717°N, 23.4051°E)
Time: 11:20:12
(UTC+00:00)
Language:

Cosmos 1697 Rocket - Orbit

View from above orbital plane
View from above orbital plane
View from above satellite
View from above satellite

Ground track
Ground track

The orbit data is extracted from the following two-line orbital elements,

1 16182U 85097B   24164.94091671 -.00000160  00000-0 -56397-4 0  9994
2 16182  71.0038  36.7276 0006529 160.6041 290.6023 14.16425081997335
Epoch (UTC): 12 June 2024 22:34:55
Eccentricity: 0.0006529
inclination: 71.0038°
perigee height: 833 km
apogee height: 842 km
right ascension of ascending node: 36.7276°
argument of perigee: 160.6041°
revolutions per day: 14.16425081
mean anomaly at epoch: 290.6023°
orbit number at epoch: 99733

The dashed part of the orbit path shows where the satellite is in the earth's shadow,  

DLR